Time,TemperatureF,DewpointF,PressureIn,WindDirection,WindDirectionDegrees,WindSpeedMPH,WindSpeedGustMPH,Humidity,HourlyPrecipIn,Conditions,Clouds,dailyrainin,SoftwareType,DateUTC
2013-03-28 00:00:00,42.1,28.8,29.92,WNW,290,9.2,9.2,59,0.00,BKN,,0.00,WeatherDisplay:10.37,2013-03-28 04:00:00,
2013-03-28 00:01:00,42.1,30.0,29.92,NW,310,11.5,11.5,62,0.00,BKN,,0.00,WeatherDisplay:10.37,2013-03-28 04:01:00,
2013-03-28 00:02:00,42.1,30.0,29.92,NW,310,11.5,11.5,62,0.00,BKN,,0.00,WeatherDisplay:10.37,2013-03-28 04:02:00,
2013-03-28 00:07:00,41.9,29.8,29.92,NW,310,11.5,11.5,62,0.00,BKN,,0.00,WeatherDisplay:10.37,2013-03-28 04:07:00,
2013-03-28 00:12:00,41.9,29.8,29.92,NW,310,11.5,11.5,62,0.00,BKN,,0.00,WeatherDisplay:10.37,2013-03-28 04:12:00,
2013-03-28 00:17:00,41.7,29.6,29.92,NW,310,11.5,11.5,62,0.00,BKN,,0.00,WeatherDisplay:10.37,2013-03-28 04:17:00,
2013-03-28 00:22:00,41.7,29.6,29.92,NW,310,11.5,11.5,62,0.00,BKN,,0.00,WeatherDisplay:10.37,2013-03-28 04:22:00,
2013-03-28 00:27:00,41.7,29.6,29.92,NW,310,11.5,11.5,62,0.00,BKN,,0.00,WeatherDisplay:10.37,2013-03-28 04:27:00,
2013-03-28 00:32:00,41.7,29.6,29.92,NW,310,11.5,11.5,62,0.00,BKN,,0.00,WeatherDisplay:10.37,2013-03-28 04:32:00,
2013-03-28 00:37:00,41.4,29.3,29.92,NW,310,11.5,11.5,62,0.00,BKN,,0.00,WeatherDisplay:10.37,2013-03-28 04:37:00,
2013-03-28 00:42:00,41.2,29.1,29.92,NW,310,11.5,11.5,62,0.00,BKN,,0.00,WeatherDisplay:10.37,2013-03-28 04:42:00,
2013-03-28 00:47:00,41.2,29.1,29.92,NW,310,11.5,11.5,62,0.00,BKN,,0.00,WeatherDisplay:10.37,2013-03-28 04:47:00,
2013-03-28 00:52:00,41.0,29.0,29.92,NW,310,11.5,11.5,62,0.00,BKN,,0.00,WeatherDisplay:10.37,2013-03-28 04:52:00,
2013-03-28 00:58:00,41.0,29.0,29.92,NW,310,11.5,11.5,62,0.00,BKN,,0.00,WeatherDisplay:10.37,2013-03-28 04:58:00,
2013-03-28 01:03:00,40.6,29.4,29.92,WNW,290,11.5,11.5,64,0.00,OVC,,0.00,WeatherDisplay:10.37,2013-03-28 05:03:00,
2013-03-28 01:08:00,40.5,29.2,29.92,WNW,290,11.5,11.5,64,0.00,OVC,,0.00,WeatherDisplay:10.37,2013-03-28 05:08:00,
2013-03-28 01:13:00,40.5,29.2,29.92,WNW,290,11.5,11.5,64,0.00,OVC,,0.00,WeatherDisplay:10.37,2013-03-28 05:13:00,
2013-03-28 01:18:00,40.5,29.2,29.95,WNW,290,11.5,11.5,64,0.00,OVC,,0.00,WeatherDisplay:10.37,2013-03-28 05:18:00,
2013-03-28 01:23:00,40.3,29.1,29.95,WNW,290,11.5,11.5,64,0.00,OVC,,0.00,WeatherDisplay:10.37,2013-03-28 05:23:00,
2013-03-28 01:28:00,40.5,29.2,29.95,WNW,290,11.5,11.5,64,0.00,OVC,,0.00,WeatherDisplay:10.37,2013-03-28 05:28:00,
2013-03-28 01:33:00,40.5,29.2,29.95,WNW,290,11.5,11.5,64,0.00,OVC,,0.00,WeatherDisplay:10.37,2013-03-28 05:33:00,
2013-03-28 01:38:00,40.5,29.2,29.92,WNW,290,11.5,11.5,64,0.00,OVC,,0.00,WeatherDisplay:10.37,2013-03-28 05:38:00,
2013-03-28 01:43:00,40.5,29.2,29.92,WNW,290,11.5,11.5,64,0.00,OVC,,0.00,WeatherDisplay:10.37,2013-03-28 05:43:00,
2013-03-28 01:48:00,40.5,29.2,29.92,WNW,290,11.5,11.5,64,0.00,OVC,,0.00,WeatherDisplay:10.37,2013-03-28 05:48:00,
2013-03-28 01:53:00,40.5,29.2,29.92,WNW,290,11.5,11.5,64,0.00,OVC,,0.00,WeatherDisplay:10.37,2013-03-28 05:53:00,
2013-03-28 01:58:00,40.5,29.2,29.92,WNW,290,11.5,11.5,64,0.00,OVC,,0.00,WeatherDisplay:10.37,2013-03-28 05:58:00,
2013-03-28 02:03:00,40.3,30.9,29.92,West,280,13.8,13.8,69,0.00,BKN,,0.00,WeatherDisplay:10.37,2013-03-28 06:03:00,
2013-03-28 02:08:00,40.3,30.9,29.92,West,280,13.8,13.8,69,0.00,BKN,,0.00,WeatherDisplay:10.37,2013-03-28 06:08:00,
2013-03-28 02:13:00,40.3,30.9,29.92,West,280,13.8,13.8,69,0.00,BKN,,0.00,WeatherDisplay:10.37,2013-03-28 06:13:00,
2013-03-28 02:18:00,40.3,30.9,29.92,West,280,13.8,13.8,69,0.00,BKN,,0.00,WeatherDisplay:10.37,2013-03-28 06:18:00,
2013-03-28 02:23:00,40.3,30.9,29.92,West,280,13.8,13.8,69,0.00,BKN,,0.00,WeatherDisplay:10.37,2013-03-28 06:23:00,
2013-03-28 02:28:00,40.1,30.7,29.92,West,280,13.8,13.8,69,0.00,BKN,,0.00,WeatherDisplay:10.37,2013-03-28 06:28:00,
2013-03-28 02:33:00,40.1,30.7,29.92,West,280,13.8,13.8,69,0.00,BKN,,0.00,WeatherDisplay:10.37,2013-03-28 06:33:00,
2013-03-28 02:38:00,40.1,30.7,29.92,West,280,13.8,13.8,69,0.00,BKN,,0.00,WeatherDisplay:10.37,2013-03-28 06:38:00,
2013-03-28 02:43:00,39.7,30.4,29.95,West,280,13.8,13.8,69,0.00,BKN,,0.00,WeatherDisplay:10.37,2013-03-28 06:43:00,
2013-03-28 02:48:00,39.7,30.4,29.95,West,280,13.8,13.8,69,0.00,BKN,,0.00,WeatherDisplay:10.37,2013-03-28 06:48:00,
2013-03-28 02:53:00,39.7,30.4,29.95,West,280,13.8,13.8,69,0.00,BKN,,0.00,WeatherDisplay:10.37,2013-03-28 06:53:00,
2013-03-28 02:58:00,39.4,30.1,29.92,West,280,13.8,13.8,69,0.00,BKN,,0.00,WeatherDisplay:10.37,2013-03-28 06:58:00,
2013-03-28 03:03:00,39.4,32.1,29.92,West,280,11.5,11.5,75,0.00,BKN,,0.00,WeatherDisplay:10.37,2013-03-28 07:03:00,
2013-03-28 03:08:00,39.4,32.1,29.92,West,280,11.5,11.5,75,0.00,BKN,,0.00,WeatherDisplay:10.37,2013-03-28 07:08:00,
2013-03-28 03:13:00,38.7,31.4,29.92,West,280,11.5,11.5,75,0.00,BKN,,0.00,WeatherDisplay:10.37,2013-03-28 07:13:00,
2013-03-28 03:18:00,38.7,31.4,29.92,West,280,11.5,11.5,75,0.00,BKN,,0.00,WeatherDisplay:10.37,2013-03-28 07:18:00,
2013-03-28 03:23:00,38.5,31.2,29.92,West,280,11.5,11.5,75,0.00,BKN,,0.00,WeatherDisplay:10.37,2013-03-28 07:23:00,
2013-03-28 03:28:00,38.5,31.2,29.92,West,280,11.5,11.5,75,0.00,BKN,,0.00,WeatherDisplay:10.37,2013-03-28 07:28:00,
2013-03-28 03:33:00,38.5,31.2,29.92,West,280,11.5,11.5,75,0.00,BKN,,0.00,WeatherDisplay:10.37,2013-03-28 07:33:00,
2013-03-28 03:38:00,38.3,31.1,29.92,West,280,11.5,11.5,75,0.00,BKN,,0.00,WeatherDisplay:10.37,2013-03-28 07:38:00,
2013-03-28 03:43:00,38.3,31.1,29.92,West,280,11.5,11.5,75,0.00,BKN,,0.00,WeatherDisplay:10.37,2013-03-28 07:43:00,
2013-03-28 03:48:00,38.1,30.9,29.92,West,280,11.5,11.5,75,0.00,BKN,,0.00,WeatherDisplay:10.37,2013-03-28 07:48:00,
2013-03-28 03:53:00,37.9,30.7,29.92,West,280,11.5,11.5,75,0.00,BKN,,0.00,WeatherDisplay:10.37,2013-03-28 07:53:00,
2013-03-28 03:58:00,37.9,30.7,29.92,West,280,11.5,11.5,75,0.00,BKN,,0.00,WeatherDisplay:10.37,2013-03-28 07:58:00,
2013-03-28 04:03:00,37.9,30.7,29.92,NW,310,5.8,5.8,75,0.00,OVC,,0.00,WeatherDisplay:10.37,2013-03-28 08:03:00,
2013-03-28 04:08:00,37.9,30.7,29.92,NW,310,5.8,5.8,75,0.00,OVC,,0.00,WeatherDisplay:10.37,2013-03-28 08:08:00,
2013-03-28 04:13:00,37.9,30.7,29.92,NW,310,5.8,5.8,75,0.00,OVC,,0.00,WeatherDisplay:10.37,2013-03-28 08:13:00,
2013-03-28 04:18:00,37.9,30.7,29.92,NW,310,5.8,5.8,75,0.00,OVC,,0.00,WeatherDisplay:10.37,2013-03-28 08:18:00,
2013-03-28 04:23:00,37.9,30.7,29.92,NW,310,5.8,5.8,75,0.00,OVC,,0.00,WeatherDisplay:10.37,2013-03-28 08:23:00,
2013-03-28 04:28:00,37.9,30.7,29.92,NW,310,5.8,5.8,75,0.00,OVC,,0.00,WeatherDisplay:10.37,2013-03-28 08:28:00,
2013-03-28 04:33:00,37.9,30.7,29.92,NW,310,5.8,5.8,75,0.00,OVC,,0.00,WeatherDisplay:10.37,2013-03-28 08:33:00,
2013-03-28 04:38:00,37.9,30.7,29.92,NW,310,5.8,5.8,75,0.00,OVC,,0.00,WeatherDisplay:10.37,2013-03-28 08:38:00,
2013-03-28 04:43:00,37.9,30.7,29.92,NW,310,5.8,5.8,75,0.00,OVC,,0.00,WeatherDisplay:10.37,2013-03-28 08:43:00,
2013-03-28 04:48:00,37.9,30.7,29.92,NW,310,5.8,5.8,75,0.00,OVC,,0.00,WeatherDisplay:10.37,2013-03-28 08:48:00,
2013-03-28 04:53:00,37.8,30.5,29.92,NW,310,5.8,5.8,75,0.00,OVC,,0.00,WeatherDisplay:10.37,2013-03-28 08:53:00,
2013-03-28 04:58:00,37.8,30.5,29.92,NW,310,5.8,5.8,75,0.00,OVC,,0.00,WeatherDisplay:10.37,2013-03-28 08:58:00,
2013-03-28 05:03:00,37.8,30.5,29.92,NW,310,5.8,5.8,75,0.00,OVC,,0.00,WeatherDisplay:10.37,2013-03-28 09:03:00,
2013-03-28 05:08:00,37.6,30.4,29.92,NW,310,5.8,5.8,75,0.00,OVC,,0.00,WeatherDisplay:10.37,2013-03-28 09:08:00,
2013-03-28 05:13:00,37.6,30.4,29.92,NW,310,5.8,5.8,75,0.00,OVC,,0.00,WeatherDisplay:10.37,2013-03-28 09:13:00,
2013-03-28 05:18:00,37.6,31.3,29.92,NW,310,5.8,5.8,78,0.00,OVC,,0.00,WeatherDisplay:10.37,2013-03-28 09:18:00,
2013-03-28 05:23:00,37.6,31.3,29.92,NW,310,5.8,5.8,78,0.00,OVC,,0.00,WeatherDisplay:10.37,2013-03-28 09:23:00,
2013-03-28 05:28:00,37.6,31.3,29.92,NW,310,5.8,5.8,78,0.00,OVC,,0.00,WeatherDisplay:10.37,2013-03-28 09:28:00,
2013-03-28 05:33:00,37.6,31.3,29.92,NW,310,5.8,5.8,78,0.00,OVC,,0.00,WeatherDisplay:10.37,2013-03-28 09:33:00,
2013-03-28 05:38:00,37.4,31.2,29.92,NW,310,5.8,5.8,78,0.00,OVC,,0.00,WeatherDisplay:10.37,2013-03-28 09:38:00,
2013-03-28 05:43:00,37.4,31.2,29.92,NW,310,5.8,5.8,78,0.00,OVC,,0.00,WeatherDisplay:10.37,2013-03-28 09:43:00,
2013-03-28 05:48:00,37.4,31.2,29.92,NW,310,5.8,5.8,78,0.00,OVC,,0.00,WeatherDisplay:10.37,2013-03-28 09:48:00,
2013-03-28 05:53:00,37.4,31.2,29.92,NW,310,5.8,5.8,78,0.00,OVC,,0.00,WeatherDisplay:10.37,2013-03-28 09:53:00,
2013-03-28 05:58:00,37.4,31.2,29.95,NW,310,5.8,5.8,78,0.00,OVC,,0.00,WeatherDisplay:10.37,2013-03-28 09:58:00,
2013-03-28 06:03:00,37.6,31.3,29.95,NW,310,5.8,5.8,78,0.00,OVC,,0.00,WeatherDisplay:10.37,2013-03-28 10:03:00,
2013-03-28 06:08:00,37.6,31.3,29.95,NW,310,5.8,5.8,78,0.00,OVC,,0.00,WeatherDisplay:10.37,2013-03-28 10:08:00,
2013-03-28 06:13:00,37.6,31.3,29.95,NW,310,5.8,5.8,78,0.00,OVC,,0.00,WeatherDisplay:10.37,2013-03-28 10:13:00,
2013-03-28 06:18:00,37.6,30.4,29.95,NW,320,8.1,8.1,75,0.00,OVC,,0.00,WeatherDisplay:10.37,2013-03-28 10:18:00,
2013-03-28 06:23:00,37.6,30.4,29.95,NW,320,8.1,8.1,75,0.00,OVC,,0.00,WeatherDisplay:10.37,2013-03-28 10:23:00,
2013-03-28 06:28:00,37.6,30.4,29.95,NW,320,8.1,8.1,75,0.00,OVC,,0.00,WeatherDisplay:10.37,2013-03-28 10:28:00,
2013-03-28 06:33:00,37.6,30.4,29.95,NW,320,8.1,8.1,75,0.00,OVC,,0.00,WeatherDisplay:10.37,2013-03-28 10:33:00,
2013-03-28 06:38:00,37.6,30.4,29.95,NW,320,8.1,8.1,75,0.00,OVC,,0.00,WeatherDisplay:10.37,2013-03-28 10:38:00,
2013-03-28 06:43:00,37.6,30.4,29.95,NW,320,8.1,8.1,75,0.00,OVC,,0.00,WeatherDisplay:10.37,2013-03-28 10:43:00,
2013-03-28 06:48:00,37.6,30.4,29.95,NW,320,8.1,8.1,75,0.00,OVC,,0.00,WeatherDisplay:10.37,2013-03-28 10:48:00,
2013-03-28 06:53:00,37.6,30.4,29.95,NW,320,8.1,8.1,75,0.00,OVC,,0.00,WeatherDisplay:10.37,2013-03-28 10:53:00,
2013-03-28 06:58:00,37.6,30.4,29.95,NW,320,8.1,8.1,75,0.00,OVC,,0.00,WeatherDisplay:10.37,2013-03-28 10:58:00,
2013-03-28 07:03:00,37.6,30.4,29.95,NW,320,8.1,8.1,75,0.00,OVC,,0.00,WeatherDisplay:10.37,2013-03-28 11:03:00,
2013-03-28 07:08:00,37.6,30.4,29.95,NW,320,8.1,8.1,75,0.00,OVC,,0.00,WeatherDisplay:10.37,2013-03-28 11:08:00,
2013-03-28 07:13:00,37.6,30.4,29.95,NW,320,8.1,8.1,75,0.00,OVC,,0.00,WeatherDisplay:10.37,2013-03-28 11:13:00,
2013-03-28 07:18:00,37.6,31.3,29.95,NW,320,6.9,6.9,78,0.00,-DZ,,0.00,WeatherDisplay:10.37,2013-03-28 11:18:00,
2013-03-28 07:23:00,37.6,31.3,29.95,NW,320,6.9,6.9,78,0.00,-DZ,,0.00,WeatherDisplay:10.37,2013-03-28 11:23:00,
2013-03-28 07:28:00,37.6,31.3,29.95,NW,320,6.9,6.9,78,0.00,-DZ,,0.00,WeatherDisplay:10.37,2013-03-28 11:28:00,
2013-03-28 07:33:00,37.6,31.3,29.95,NW,320,6.9,6.9,78,0.00,-DZ,,0.00,WeatherDisplay:10.37,2013-03-28 11:33:00,
2013-03-28 07:38:00,37.6,31.3,29.95,NW,320,6.9,6.9,78,0.00,-DZ,,0.00,WeatherDisplay:10.37,2013-03-28 11:38:00,
2013-03-28 07:43:00,37.6,31.3,29.95,NW,320,6.9,6.9,78,0.00,-DZ,,0.00,WeatherDisplay:10.37,2013-03-28 11:43:00,
2013-03-28 07:48:00,37.6,31.3,29.95,NW,320,6.9,6.9,78,0.00,-DZ,,0.00,WeatherDisplay:10.37,2013-03-28 11:48:00,
2013-03-28 07:53:00,37.6,31.3,29.95,NW,320,6.9,6.9,78,0.00,-DZ,,0.00,WeatherDisplay:10.37,2013-03-28 11:53:00,
2013-03-28 07:58:00,37.6,31.3,29.95,NW,320,6.9,6.9,78,0.00,-DZ,,0.00,WeatherDisplay:10.37,2013-03-28 11:58:00,
2013-03-28 08:03:00,37.6,31.3,29.95,NW,320,6.9,6.9,78,0.00,-DZ,,0.00,WeatherDisplay:10.37,2013-03-28 12:03:00,
2013-03-28 08:08:00,37.6,31.3,29.95,NW,320,6.9,6.9,78,0.00,-DZ,,0.00,WeatherDisplay:10.37,2013-03-28 12:08:00,
2013-03-28 08:13:00,37.6,31.3,29.95,NW,320,6.9,6.9,78,0.00,-DZ,,0.00,WeatherDisplay:10.37,2013-03-28 12:13:00,
2013-03-28 08:18:00,37.8,31.5,29.95,NW,320,8.1,8.1,78,0.00,-DZ,,0.00,WeatherDisplay:10.37,2013-03-28 12:18:00,
2013-03-28 08:23:00,37.9,31.7,29.95,NW,320,8.1,8.1,78,0.00,-DZ,,0.00,WeatherDisplay:10.37,2013-03-28 12:23:00,
2013-03-28 08:28:00,37.9,31.7,29.98,NW,320,8.1,8.1,78,0.00,-DZ,,0.00,WeatherDisplay:10.37,2013-03-28 12:28:00,
2013-03-28 08:33:00,37.9,31.7,29.98,NW,320,8.1,8.1,78,0.00,-DZ,,0.00,WeatherDisplay:10.37,2013-03-28 12:33:00,
2013-03-28 08:38:00,37.9,31.7,29.98,NW,320,8.1,8.1,78,0.00,-DZ,,0.00,WeatherDisplay:10.37,2013-03-28 12:38:00,
2013-03-28 08:43:00,38.1,31.9,29.98,NW,320,8.1,8.1,78,0.00,-DZ,,0.00,WeatherDisplay:10.37,2013-03-28 12:43:00,
2013-03-28 08:48:00,38.1,31.9,29.98,NW,320,8.1,8.1,78,0.00,-DZ,,0.00,WeatherDisplay:10.37,2013-03-28 12:48:00,
2013-03-28 08:53:00,38.1,31.9,29.98,NW,320,8.1,8.1,78,0.00,-DZ,,0.00,WeatherDisplay:10.37,2013-03-28 12:53:00,
2013-03-28 08:58:00,38.5,32.2,29.98,NW,320,8.1,8.1,78,0.00,-DZ,,0.00,WeatherDisplay:10.37,2013-03-28 12:58:00,
2013-03-28 09:03:00,38.5,32.2,29.98,NW,320,8.1,8.1,78,0.00,-DZ,,0.00,WeatherDisplay:10.37,2013-03-28 13:03:00,
2013-03-28 09:08:00,38.5,32.2,29.98,NW,320,8.1,8.1,78,0.00,-DZ,,0.00,WeatherDisplay:10.37,2013-03-28 13:08:00,
2013-03-28 09:13:00,38.5,32.2,29.98,NW,320,8.1,8.1,78,0.00,-DZ,,0.00,WeatherDisplay:10.37,2013-03-28 13:13:00,
2013-03-28 09:18:00,38.7,32.4,29.98,WNW,300,10.4,10.4,78,0.00,-RA,,0.00,WeatherDisplay:10.37,2013-03-28 13:18:00,
2013-03-28 09:23:00,38.8,32.6,29.98,WNW,300,10.4,10.4,78,0.00,-RA,,0.00,WeatherDisplay:10.37,2013-03-28 13:23:00,
2013-03-28 09:28:00,38.8,32.6,29.98,WNW,300,10.4,10.4,78,0.00,-RA,,0.00,WeatherDisplay:10.37,2013-03-28 13:28:00,
2013-03-28 09:33:00,38.8,32.6,29.98,WNW,300,10.4,10.4,78,0.00,-RA,,0.00,WeatherDisplay:10.37,2013-03-28 13:33:00,
2013-03-28 09:39:00,38.8,32.6,29.98,WNW,300,10.4,10.4,78,0.00,-RA,,0.00,WeatherDisplay:10.37,2013-03-28 13:39:00,
2013-03-28 09:44:00,39.6,33.3,29.98,WNW,300,10.4,10.4,78,0.00,-RA,,0.00,WeatherDisplay:10.37,2013-03-28 13:44:00,
2013-03-28 09:49:00,39.4,33.1,29.98,WNW,300,10.4,10.4,78,0.00,-RA,,0.00,WeatherDisplay:10.37,2013-03-28 13:49:00,
2013-03-28 09:54:00,39.7,33.4,29.98,WNW,300,10.4,10.4,78,0.00,-RA,,0.00,WeatherDisplay:10.37,2013-03-28 13:54:00,
2013-03-28 09:59:00,39.9,33.6,30.01,WNW,300,10.4,10.4,78,0.00,-RA,,0.00,WeatherDisplay:10.37,2013-03-28 13:59:00,
2013-03-28 10:04:00,40.1,32.8,30.01,NW,320,10.4,10.4,75,0.00,-RA,,0.00,WeatherDisplay:10.37,2013-03-28 14:04:00,
2013-03-28 10:09:00,40.1,32.8,30.01,NW,320,10.4,10.4,75,0.00,-RA,,0.00,WeatherDisplay:10.37,2013-03-28 14:09:00,
2013-03-28 10:14:00,40.3,33.0,30.01,NW,320,10.4,10.4,75,0.00,-RA,,0.00,WeatherDisplay:10.37,2013-03-28 14:14:00,
2013-03-28 10:19:00,40.3,33.0,30.01,NW,320,10.4,10.4,75,0.00,-RA,,0.00,WeatherDisplay:10.37,2013-03-28 14:19:00,
2013-03-28 10:24:00,40.6,33.3,30.01,NW,320,10.4,10.4,75,0.00,-RA,,0.00,WeatherDisplay:10.37,2013-03-28 14:24:00,
2013-03-28 10:29:00,41.2,33.9,30.01,NW,320,10.4,10.4,75,0.00,-RA,,0.00,WeatherDisplay:10.37,2013-03-28 14:29:00,
2013-03-28 10:34:00,41.2,33.9,30.01,NW,320,10.4,10.4,75,0.00,-RA,,0.00,WeatherDisplay:10.37,2013-03-28 14:34:00,
2013-03-28 10:39:00,40.8,33.5,30.01,NW,320,10.4,10.4,75,0.00,-RA,,0.00,WeatherDisplay:10.37,2013-03-28 14:39:00,
2013-03-28 10:44:00,41.5,34.2,30.01,NW,320,10.4,10.4,75,0.00,-RA,,0.00,WeatherDisplay:10.37,2013-03-28 14:44:00,
2013-03-28 10:49:00,41.5,32.1,30.01,NNW,330,6.9,6.9,69,0.00,OVC,,0.00,WeatherDisplay:10.37,2013-03-28 14:49:00,
2013-03-28 10:54:00,41.7,32.3,30.01,NNW,330,6.9,6.9,69,0.00,OVC,,0.00,WeatherDisplay:10.37,2013-03-28 14:54:00,
2013-03-28 10:59:00,42.1,32.6,30.01,NNW,330,6.9,6.9,69,0.00,OVC,,0.00,WeatherDisplay:10.37,2013-03-28 14:59:00,
2013-03-28 11:04:00,42.1,32.6,30.01,NNW,330,6.9,6.9,69,0.00,OVC,,0.00,WeatherDisplay:10.37,2013-03-28 15:04:00,
2013-03-28 11:09:00,42.1,32.6,30.01,NNW,330,6.9,6.9,69,0.00,OVC,,0.00,WeatherDisplay:10.37,2013-03-28 15:09:00,
2013-03-28 11:14:00,41.7,32.3,30.01,NNW,330,6.9,6.9,69,0.00,OVC,,0.00,WeatherDisplay:10.37,2013-03-28 15:14:00,
2013-03-28 11:19:00,42.1,31.9,30.01,NW,320,10.4,10.4,67,0.00,OVC,,0.00,WeatherDisplay:10.37,2013-03-28 15:19:00,
2013-03-28 11:24:00,42.1,31.9,30.01,NW,320,10.4,10.4,67,0.00,OVC,,0.00,WeatherDisplay:10.37,2013-03-28 15:24:00,
2013-03-28 11:29:00,42.1,31.9,30.01,NW,320,10.4,10.4,67,0.00,OVC,,0.00,WeatherDisplay:10.37,2013-03-28 15:29:00,
2013-03-28 11:34:00,42.1,31.9,30.01,NW,320,10.4,10.4,67,0.00,OVC,,0.00,WeatherDisplay:10.37,2013-03-28 15:34:00,
2013-03-28 11:39:00,43.0,32.8,30.01,NW,320,10.4,10.4,67,0.00,OVC,,0.00,WeatherDisplay:10.37,2013-03-28 15:39:00,
2013-03-28 11:44:00,43.0,32.8,30.01,NW,320,10.4,10.4,67,0.00,OVC,,0.00,WeatherDisplay:10.37,2013-03-28 15:44:00,
2013-03-28 11:49:00,43.7,30.7,30.01,NNW,330,8.1,8.1,60,0.00,BKN,,0.00,WeatherDisplay:10.37,2013-03-28 15:49:00,
2013-03-28 11:54:00,43.7,30.7,30.01,NNW,330,8.1,8.1,60,0.00,BKN,,0.00,WeatherDisplay:10.37,2013-03-28 15:54:00,
2013-03-28 11:59:00,43.7,30.7,30.01,NNW,330,8.1,8.1,60,0.00,BKN,,0.00,WeatherDisplay:10.37,2013-03-28 15:59:00,
2013-03-28 12:04:00,43.7,33.5,30.01,WNW,290,6.9,6.9,67,0.00,OVC,,0.00,WeatherDisplay:10.37,2013-03-28 16:04:00,
2013-03-28 12:09:00,45.1,34.8,30.01,WNW,290,6.9,6.9,67,0.00,OVC,,0.00,WeatherDisplay:10.37,2013-03-28 16:09:00,
2013-03-28 12:14:00,45.1,34.8,30.01,WNW,290,6.9,6.9,67,0.00,OVC,,0.00,WeatherDisplay:10.37,2013-03-28 16:14:00,
2013-03-28 12:19:00,45.1,34.8,30.01,WNW,290,6.9,6.9,67,0.00,OVC,,0.00,WeatherDisplay:10.37,2013-03-28 16:19:00,
2013-03-28 12:24:00,45.1,34.8,30.01,WNW,290,6.9,6.9,67,0.00,OVC,,0.00,WeatherDisplay:10.37,2013-03-28 16:24:00,
2013-03-28 12:29:00,45.1,34.8,30.01,WNW,290,6.9,6.9,67,0.00,OVC,,0.00,WeatherDisplay:10.37,2013-03-28 16:29:00,
2013-03-28 12:34:00,45.1,34.8,30.01,WNW,290,6.9,6.9,67,0.00,OVC,,0.00,WeatherDisplay:10.37,2013-03-28 16:34:00,
2013-03-28 12:39:00,45.1,34.8,30.01,WNW,290,6.9,6.9,67,0.00,OVC,,0.00,WeatherDisplay:10.37,2013-03-28 16:39:00,
2013-03-28 12:44:00,45.3,35.0,30.01,East,100,6.9,6.9,67,0.00,OVC,,0.00,WeatherDisplay:10.37,2013-03-28 16:44:00,
2013-03-28 12:49:00,45.3,35.0,30.01,East,100,6.9,6.9,67,0.00,OVC,,0.00,WeatherDisplay:10.37,2013-03-28 16:49:00,
2013-03-28 12:54:00,45.3,35.0,30.01,WNW,290,6.9,6.9,67,0.00,OVC,,0.00,WeatherDisplay:10.37,2013-03-28 16:54:00,
2013-03-28 12:59:00,45.9,35.5,30.01,WNW,290,6.9,6.9,67,0.00,OVC,,0.00,WeatherDisplay:10.37,2013-03-28 16:59:00,
2013-03-28 13:04:00,45.9,35.5,30.01,WNW,290,6.9,6.9,67,0.00,OVC,,0.00,WeatherDisplay:10.37,2013-03-28 17:04:00,
2013-03-28 13:09:00,45.9,35.5,30.01,WNW,290,6.9,6.9,67,0.00,OVC,,0.00,WeatherDisplay:10.37,2013-03-28 17:09:00,
2013-03-28 13:14:00,45.9,35.5,30.01,WNW,290,6.9,6.9,67,0.00,OVC,,0.00,WeatherDisplay:10.37,2013-03-28 17:14:00,
2013-03-28 13:19:00,45.9,33.6,30.01,NNW,330,8.1,8.1,62,0.00,OVC,,0.00,WeatherDisplay:10.37,2013-03-28 17:19:00,
2013-03-28 13:24:00,46.4,34.1,30.01,East,100,8.1,8.1,62,0.00,OVC,,0.00,WeatherDisplay:10.37,2013-03-28 17:24:00,
2013-03-28 13:29:00,46.4,34.1,30.01,NNW,330,8.1,8.1,62,0.00,OVC,,0.00,WeatherDisplay:10.37,2013-03-28 17:29:00,
2013-03-28 13:34:00,46.4,34.1,30.01,NNW,330,8.1,8.1,62,0.00,OVC,,0.00,WeatherDisplay:10.37,2013-03-28 17:34:00,
2013-03-28 13:39:00,47.7,35.3,30.01,NNW,330,8.1,8.1,62,0.00,OVC,,0.00,WeatherDisplay:10.37,2013-03-28 17:39:00,
2013-03-28 13:44:00,47.7,35.3,30.01,NNW,330,8.1,8.1,62,0.00,OVC,,0.00,WeatherDisplay:10.37,2013-03-28 17:44:00,
2013-03-28 13:49:00,47.7,34.4,30.01,NNW,340,6.9,6.9,60,0.00,OVC,,0.00,WeatherDisplay:10.37,2013-03-28 17:49:00,
2013-03-28 13:54:00,47.7,34.4,30.01,NNW,340,6.9,6.9,60,0.00,OVC,,0.00,WeatherDisplay:10.37,2013-03-28 17:54:00,
2013-03-28 13:59:00,47.7,34.4,30.01,NNW,340,6.9,6.9,60,0.00,OVC,,0.00,WeatherDisplay:10.37,2013-03-28 17:59:00,
2013-03-28 14:04:00,47.7,35.3,30.01,WNW,300,5.8,5.8,62,0.00,OVC,,0.00,WeatherDisplay:10.37,2013-03-28 18:04:00,
2013-03-28 14:09:00,47.7,35.3,30.01,WNW,300,5.8,5.8,62,0.00,OVC,,0.00,WeatherDisplay:10.37,2013-03-28 18:09:00,
2013-03-28 14:14:00,46.8,34.4,30.01,WNW,300,5.8,5.8,62,0.00,OVC,,0.00,WeatherDisplay:10.37,2013-03-28 18:14:00,
2013-03-28 14:19:00,46.8,34.4,30.01,WNW,300,5.8,5.8,62,0.00,OVC,,0.00,WeatherDisplay:10.37,2013-03-28 18:19:00,
2013-03-28 14:24:00,46.6,34.2,30.01,WNW,300,5.8,5.8,62,0.00,OVC,,0.00,WeatherDisplay:10.37,2013-03-28 18:24:00,
2013-03-28 14:29:00,46.8,34.4,30.01,WNW,300,5.8,5.8,62,0.00,OVC,,0.00,WeatherDisplay:10.37,2013-03-28 18:29:00,
2013-03-28 14:34:00,46.0,33.7,30.01,WNW,300,5.8,5.8,62,0.00,OVC,,0.00,WeatherDisplay:10.37,2013-03-28 18:34:00,
2013-03-28 14:39:00,46.2,33.9,30.01,WNW,300,5.8,5.8,62,0.00,OVC,,0.00,WeatherDisplay:10.37,2013-03-28 18:39:00,
2013-03-28 14:44:00,46.0,33.7,30.01,WNW,300,5.8,5.8,62,0.00,OVC,,0.00,WeatherDisplay:10.37,2013-03-28 18:44:00,
2013-03-28 14:49:00,46.0,33.7,30.01,WNW,300,5.8,5.8,62,0.00,OVC,,0.00,WeatherDisplay:10.37,2013-03-28 18:49:00,
2013-03-28 14:54:00,46.0,33.7,30.01,WNW,300,5.8,5.8,62,0.00,OVC,,0.00,WeatherDisplay:10.37,2013-03-28 18:54:00,
2013-03-28 14:59:00,46.0,33.7,30.01,WNW,300,5.8,5.8,62,0.00,OVC,,0.00,WeatherDisplay:10.37,2013-03-28 18:59:00,
2013-03-28 15:04:00,45.7,30.4,30.01,WNW,300,9.2,9.2,55,0.00,OVC,,0.00,WeatherDisplay:10.37,2013-03-28 19:04:00,
2013-03-28 15:09:00,45.7,30.4,30.01,WNW,300,9.2,9.2,55,0.00,OVC,,0.00,WeatherDisplay:10.37,2013-03-28 19:09:00,
2013-03-28 15:14:00,46.2,30.9,30.01,WNW,300,9.2,9.2,55,0.00,OVC,,0.00,WeatherDisplay:10.37,2013-03-28 19:14:00,
2013-03-28 15:19:00,46.2,30.9,30.01,WNW,300,9.2,9.2,55,0.00,OVC,,0.00,WeatherDisplay:10.37,2013-03-28 19:19:00,
2013-03-28 15:24:00,46.4,31.1,30.01,WNW,300,9.2,9.2,55,0.00,OVC,,0.00,WeatherDisplay:10.37,2013-03-28 19:24:00,
2013-03-28 15:29:00,46.4,31.1,30.01,WNW,300,9.2,9.2,55,0.00,OVC,,0.00,WeatherDisplay:10.37,2013-03-28 19:29:00,
2013-03-28 15:34:00,46.4,31.1,30.01,WNW,300,9.2,9.2,55,0.00,OVC,,0.00,WeatherDisplay:10.37,2013-03-28 19:34:00,
2013-03-28 15:39:00,46.4,31.1,30.01,WNW,300,9.2,9.2,55,0.00,OVC,,0.00,WeatherDisplay:10.37,2013-03-28 19:39:00,
2013-03-28 15:44:00,46.4,31.1,30.01,WNW,300,9.2,9.2,55,0.00,OVC,,0.00,WeatherDisplay:10.37,2013-03-28 19:44:00,
2013-03-28 15:49:00,46.4,31.1,30.01,WNW,300,9.2,9.2,55,0.00,OVC,,0.00,WeatherDisplay:10.37,2013-03-28 19:49:00,
2013-03-28 15:54:00,46.4,31.1,30.01,WNW,300,9.2,9.2,55,0.00,OVC,,0.00,WeatherDisplay:10.37,2013-03-28 19:54:00,
2013-03-28 15:59:00,46.4,31.1,30.01,WNW,300,9.2,9.2,55,0.00,OVC,,0.00,WeatherDisplay:10.37,2013-03-28 19:59:00,
2013-03-28 16:04:00,46.4,31.1,30.01,WNW,300,9.2,9.2,55,0.00,OVC,,0.00,WeatherDisplay:10.37,2013-03-28 20:04:00,
2013-03-28 16:09:00,46.4,31.1,30.01,WNW,300,9.2,9.2,55,0.00,OVC,,0.00,WeatherDisplay:10.37,2013-03-28 20:09:00,
2013-03-28 16:14:00,48.7,33.3,30.01,WNW,300,9.2,9.2,55,0.00,OVC,,0.00,WeatherDisplay:10.37,2013-03-28 20:14:00,
2013-03-28 16:19:00,48.7,34.2,30.01,WNW,300,11.5,11.5,57,0.00,BKN,,0.00,WeatherDisplay:10.37,2013-03-28 20:19:00,
2013-03-28 16:24:00,48.9,34.3,30.01,WNW,300,11.5,11.5,57,0.00,BKN,,0.00,WeatherDisplay:10.37,2013-03-28 20:24:00,
2013-03-28 16:29:00,48.9,34.3,30.01,WNW,300,11.5,11.5,57,0.00,BKN,,0.00,WeatherDisplay:10.37,2013-03-28 20:29:00,
2013-03-28 16:34:00,48.9,34.3,30.01,WNW,300,11.5,11.5,57,0.00,BKN,,0.00,WeatherDisplay:10.37,2013-03-28 20:34:00,
2013-03-28 16:39:00,48.9,34.3,30.01,WNW,300,11.5,11.5,57,0.00,BKN,,0.00,WeatherDisplay:10.37,2013-03-28 20:39:00,
2013-03-28 16:44:00,48.9,34.3,30.01,WNW,300,11.5,11.5,57,0.00,BKN,,0.00,WeatherDisplay:10.37,2013-03-28 20:44:00,
2013-03-28 16:49:00,48.9,34.3,30.01,WNW,300,11.5,11.5,57,0.00,BKN,,0.00,WeatherDisplay:10.37,2013-03-28 20:49:00,
2013-03-28 16:54:00,48.9,34.3,30.01,WNW,300,11.5,11.5,57,0.00,BKN,,0.00,WeatherDisplay:10.37,2013-03-28 20:54:00,
2013-03-28 16:59:00,48.9,34.3,30.01,WNW,300,11.5,11.5,57,0.00,BKN,,0.00,WeatherDisplay:10.37,2013-03-28 20:59:00,
2013-03-28 17:04:00,48.9,32.5,30.01,West,280,11.5,11.5,53,0.00,BKN,,0.00,WeatherDisplay:10.37,2013-03-28 21:04:00,
2013-03-28 17:09:00,48.9,32.5,30.01,West,280,11.5,11.5,53,0.00,BKN,,0.00,WeatherDisplay:10.37,2013-03-28 21:09:00,
2013-03-28 17:14:00,47.8,31.5,30.01,West,280,11.5,11.5,53,0.00,BKN,,0.00,WeatherDisplay:10.37,2013-03-28 21:14:00,
2013-03-28 17:19:00,48.0,31.7,30.01,West,280,11.5,11.5,53,0.00,BKN,,0.00,WeatherDisplay:10.37,2013-03-28 21:19:00,
2013-03-28 17:24:00,48.6,32.2,30.01,West,280,11.5,11.5,53,0.00,BKN,,0.00,WeatherDisplay:10.37,2013-03-28 21:24:00,
2013-03-28 17:29:00,48.6,32.2,29.98,West,280,11.5,11.5,53,0.00,BKN,,0.00,WeatherDisplay:10.37,2013-03-28 21:29:00,
2013-03-28 17:34:00,48.6,32.2,29.98,West,280,11.5,11.5,53,0.00,BKN,,0.00,WeatherDisplay:10.37,2013-03-28 21:34:00,
2013-03-28 17:39:00,48.6,32.2,29.98,West,280,11.5,11.5,53,0.00,BKN,,0.00,WeatherDisplay:10.37,2013-03-28 21:39:00,
2013-03-28 17:44:00,48.6,32.2,29.98,West,280,11.5,11.5,53,0.00,BKN,,0.00,WeatherDisplay:10.37,2013-03-28 21:44:00,
2013-03-28 17:49:00,48.6,32.2,29.98,West,280,11.5,11.5,53,0.00,BKN,,0.00,WeatherDisplay:10.37,2013-03-28 21:49:00,
2013-03-28 17:54:00,49.5,33.0,29.98,West,280,11.5,11.5,53,0.00,BKN,,0.00,WeatherDisplay:10.37,2013-03-28 21:54:00,
2013-03-28 17:59:00,49.3,32.9,29.98,West,280,11.5,11.5,53,0.00,BKN,,0.00,WeatherDisplay:10.37,2013-03-28 21:59:00,
2013-03-28 18:04:00,49.3,32.9,30.00,West,280,12.0,12.0,53,0.00,BKN,BKN,0.00,WeatherDisplay:10.37,2013-03-28 22:04:00,
2013-03-28 18:09:00,49.3,32.9,30.01,West,280,12.0,12.0,53,0.00,BKN,BKN,0.00,WeatherDisplay:10.37,2013-03-28 22:09:00,
2013-03-28 18:14:00,49.5,33.0,30.01,West,280,12.0,12.0,53,0.00,BKN,BKN,0.00,WeatherDisplay:10.37,2013-03-28 22:14:00,
2013-03-28 18:22:00,48.2,31.9,30.01,West,280,11.5,11.5,53,0.00,BKN,,0.00,WeatherDisplay:10.37,2013-03-28 22:22:00,
2013-03-28 18:27:00,48.0,30.7,30.01,WNW,290,11.5,11.5,51,0.00,OVC,,0.00,WeatherDisplay:10.37,2013-03-28 22:27:00,
2013-03-28 18:32:00,48.0,30.7,30.01,WNW,290,11.5,11.5,51,0.00,OVC,,0.00,WeatherDisplay:10.37,2013-03-28 22:32:00,
2013-03-28 18:37:00,47.8,30.6,30.01,WNW,290,11.5,11.5,51,0.00,OVC,,0.00,WeatherDisplay:10.37,2013-03-28 22:37:00,
2013-03-28 18:42:00,47.8,30.6,30.01,WNW,290,11.5,11.5,51,0.00,OVC,,0.00,WeatherDisplay:10.37,2013-03-28 22:42:00,
2013-03-28 18:47:00,47.7,30.4,30.01,WNW,290,11.5,11.5,51,0.00,OVC,,0.00,WeatherDisplay:10.37,2013-03-28 22:47:00,
2013-03-28 18:52:00,47.5,30.2,30.01,WNW,290,11.5,11.5,51,0.00,OVC,,0.00,WeatherDisplay:10.37,2013-03-28 22:52:00,
2013-03-28 18:57:00,47.5,30.2,30.01,WNW,290,11.5,11.5,51,0.00,OVC,,0.00,WeatherDisplay:10.37,2013-03-28 22:57:00,
2013-03-28 19:02:00,47.3,30.1,30.01,WNW,290,11.5,11.5,51,0.00,OVC,,0.00,WeatherDisplay:10.37,2013-03-28 23:02:00,
2013-03-28 19:07:00,47.3,30.1,30.01,WNW,290,11.5,11.5,51,0.00,OVC,,0.00,WeatherDisplay:10.37,2013-03-28 23:07:00,
2013-03-28 19:12:00,47.1,29.9,30.01,WNW,290,11.5,11.5,51,0.00,OVC,,0.00,WeatherDisplay:10.37,2013-03-28 23:12:00,
2013-03-28 19:17:00,47.1,29.4,30.01,WNW,290,12.7,23.0,50,0.00,OVC,,0.00,WeatherDisplay:10.37,2013-03-28 23:17:00,
2013-03-28 19:22:00,46.9,29.2,30.01,WNW,290,12.7,23.0,50,0.00,OVC,,0.00,WeatherDisplay:10.37,2013-03-28 23:22:00,
2013-03-28 19:27:00,46.9,29.2,30.01,WNW,290,12.7,23.0,50,0.00,OVC,,0.00,WeatherDisplay:10.37,2013-03-28 23:27:00,
2013-03-28 19:32:00,46.8,29.1,30.01,WNW,290,12.7,23.0,50,0.00,OVC,,0.00,WeatherDisplay:10.37,2013-03-28 23:32:00,
2013-03-28 19:37:00,46.8,29.1,30.01,WNW,290,12.7,23.0,50,0.00,OVC,,0.00,WeatherDisplay:10.37,2013-03-28 23:37:00,
2013-03-28 19:42:00,46.6,28.9,30.01,WNW,290,12.7,23.0,50,0.00,OVC,,0.00,WeatherDisplay:10.37,2013-03-28 23:42:00,
2013-03-28 19:47:00,46.6,28.9,30.04,WNW,290,12.7,23.0,50,0.00,OVC,,0.00,WeatherDisplay:10.37,2013-03-28 23:47:00,
2013-03-28 19:52:00,46.4,28.8,30.04,WNW,290,12.7,23.0,50,0.00,OVC,,0.00,WeatherDisplay:10.37,2013-03-28 23:52:00,
2013-03-28 19:58:00,46.4,28.8,30.04,WNW,290,12.7,23.0,50,0.00,OVC,,0.00,WeatherDisplay:10.37,2013-03-28 23:58:00,
2013-03-28 20:03:00,46.0,28.4,30.04,WNW,290,12.7,23.0,50,0.00,OVC,,0.00,WeatherDisplay:10.37,2013-03-29 00:03:00,
2013-03-28 20:08:00,46.0,28.4,30.04,WNW,290,12.7,23.0,50,0.00,OVC,,0.00,WeatherDisplay:10.37,2013-03-29 00:08:00,
2013-03-28 20:13:00,46.0,28.4,30.04,WNW,290,12.7,23.0,50,0.00,OVC,,0.00,WeatherDisplay:10.37,2013-03-29 00:13:00,
2013-03-28 20:18:00,45.9,30.6,30.04,WNW,290,16.1,23.0,55,0.00,-RA,,0.00,WeatherDisplay:10.37,2013-03-29 00:18:00,
2013-03-28 20:23:00,45.9,30.6,30.04,WNW,290,16.1,23.0,55,0.00,-RA,,0.00,WeatherDisplay:10.37,2013-03-29 00:23:00,
2013-03-28 20:28:00,45.7,30.4,30.04,WNW,290,16.1,23.0,55,0.00,-RA,,0.00,WeatherDisplay:10.37,2013-03-29 00:28:00,
2013-03-28 20:33:00,45.7,30.4,30.04,WNW,290,16.1,23.0,55,0.00,-RA,,0.00,WeatherDisplay:10.37,2013-03-29 00:33:00,
2013-03-28 20:38:00,45.5,30.3,30.04,WNW,290,16.1,23.0,55,0.00,-RA,,0.00,WeatherDisplay:10.37,2013-03-29 00:38:00,
2013-03-28 20:43:00,45.5,30.3,30.04,WNW,290,16.1,23.0,55,0.00,-RA,,0.00,WeatherDisplay:10.37,2013-03-29 00:43:00,
2013-03-28 20:48:00,45.3,30.1,30.04,WNW,290,16.1,23.0,55,0.00,-RA,,0.00,WeatherDisplay:10.37,2013-03-29 00:48:00,
2013-03-28 20:53:00,45.3,30.1,30.04,WNW,290,16.1,23.0,55,0.00,-RA,,0.00,WeatherDisplay:10.37,2013-03-29 00:53:00,
2013-03-28 20:58:00,45.1,29.9,30.04,WNW,290,16.1,23.0,55,0.00,-RA,,0.00,WeatherDisplay:10.37,2013-03-29 00:58:00,
2013-03-28 21:03:00,45.1,29.9,30.04,WNW,290,16.1,23.0,55,0.00,-RA,,0.00,WeatherDisplay:10.37,2013-03-29 01:03:00,
2013-03-28 21:08:00,45.0,29.8,30.04,WNW,290,16.1,23.0,55,0.00,-RA,,0.00,WeatherDisplay:10.37,2013-03-29 01:08:00,
2013-03-28 21:13:00,45.0,29.8,30.04,WNW,290,16.1,23.0,55,0.00,-RA,,0.00,WeatherDisplay:10.37,2013-03-29 01:13:00,
2013-03-28 21:18:00,45.0,30.6,30.07,West,280,11.5,11.5,57,0.00,OVC,,0.00,WeatherDisplay:10.37,2013-03-29 01:18:00,
2013-03-28 21:23:00,44.8,30.5,30.07,West,280,11.5,11.5,57,0.00,OVC,,0.00,WeatherDisplay:10.37,2013-03-29 01:23:00,
2013-03-28 21:28:00,44.8,30.5,30.07,West,280,11.5,11.5,57,0.00,OVC,,0.00,WeatherDisplay:10.37,2013-03-29 01:28:00,
2013-03-28 21:33:00,44.6,30.3,30.07,West,280,11.5,11.5,57,0.00,OVC,,0.00,WeatherDisplay:10.37,2013-03-29 01:33:00,
2013-03-28 21:38:00,44.6,30.3,30.07,West,280,11.5,11.5,57,0.00,OVC,,0.00,WeatherDisplay:10.37,2013-03-29 01:38:00,
2013-03-28 21:43:00,44.6,30.3,30.07,West,280,11.5,11.5,57,0.00,OVC,,0.00,WeatherDisplay:10.37,2013-03-29 01:43:00,
2013-03-28 21:48:00,44.4,30.1,30.07,West,280,11.5,11.5,57,0.00,OVC,,0.00,WeatherDisplay:10.37,2013-03-29 01:48:00,
2013-03-28 21:53:00,44.4,30.1,30.07,West,280,11.5,11.5,57,0.00,OVC,,0.00,WeatherDisplay:10.37,2013-03-29 01:53:00,
2013-03-28 21:58:00,44.2,30.0,30.07,West,280,11.5,11.5,57,0.00,OVC,,0.00,WeatherDisplay:10.37,2013-03-29 01:58:00,
2013-03-28 22:03:00,44.2,30.0,30.07,West,280,11.5,11.5,57,0.00,OVC,,0.00,WeatherDisplay:10.37,2013-03-29 02:03:00,
2013-03-28 22:08:00,44.2,30.0,30.07,West,280,11.5,11.5,57,0.00,OVC,,0.00,WeatherDisplay:10.37,2013-03-29 02:08:00,
2013-03-28 22:13:00,44.1,29.8,30.07,West,280,11.5,11.5,57,0.00,OVC,,0.00,WeatherDisplay:10.37,2013-03-29 02:13:00,
2013-03-28 22:18:00,44.1,31.9,30.07,WNW,290,10.4,10.4,62,0.00,OVC,,0.00,WeatherDisplay:10.37,2013-03-29 02:18:00,
2013-03-28 22:23:00,43.9,31.7,30.07,WNW,290,10.4,10.4,62,0.00,OVC,,0.00,WeatherDisplay:10.37,2013-03-29 02:23:00,
2013-03-28 22:28:00,43.9,31.7,30.07,WNW,290,10.4,10.4,62,0.00,OVC,,0.00,WeatherDisplay:10.37,2013-03-29 02:28:00,
2013-03-28 22:33:00,43.7,31.5,30.07,WNW,290,10.4,10.4,62,0.00,OVC,,0.00,WeatherDisplay:10.37,2013-03-29 02:33:00,
2013-03-28 22:38:00,43.5,31.4,30.07,WNW,290,10.4,10.4,62,0.00,OVC,,0.00,WeatherDisplay:10.37,2013-03-29 02:38:00,
2013-03-28 22:43:00,43.5,31.4,30.07,WNW,290,10.4,10.4,62,0.00,OVC,,0.00,WeatherDisplay:10.37,2013-03-29 02:43:00,
2013-03-28 22:48:00,43.3,31.2,30.07,WNW,290,10.4,10.4,62,0.00,OVC,,0.00,WeatherDisplay:10.37,2013-03-29 02:48:00,
2013-03-28 22:53:00,43.3,31.2,30.07,WNW,290,10.4,10.4,62,0.00,OVC,,0.00,WeatherDisplay:10.37,2013-03-29 02:53:00,
2013-03-28 22:58:00,43.3,31.2,30.07,WNW,290,10.4,10.4,62,0.00,OVC,,0.00,WeatherDisplay:10.37,2013-03-29 02:58:00,
2013-03-28 23:03:00,43.2,31.0,30.07,WNW,290,10.4,10.4,62,0.00,OVC,,0.00,WeatherDisplay:10.37,2013-03-29 03:03:00,
2013-03-28 23:08:00,43.2,31.0,30.07,WNW,290,10.4,10.4,62,0.00,OVC,,0.00,WeatherDisplay:10.37,2013-03-29 03:08:00,
2013-03-28 23:13:00,43.0,30.8,30.07,WNW,290,10.4,10.4,62,0.00,OVC,,0.00,WeatherDisplay:10.37,2013-03-29 03:13:00,
2013-03-28 23:18:00,43.0,30.8,30.07,WNW,290,10.4,10.4,62,0.00,OVC,,0.00,WeatherDisplay:10.37,2013-03-29 03:18:00,
2013-03-28 23:23:00,43.0,30.8,30.07,WNW,290,10.4,10.4,62,0.00,OVC,,0.00,WeatherDisplay:10.37,2013-03-29 03:23:00,
2013-03-28 23:28:00,43.0,30.8,30.10,WNW,290,10.4,10.4,62,0.00,OVC,,0.00,WeatherDisplay:10.37,2013-03-29 03:28:00,
2013-03-28 23:33:00,43.0,31.6,30.10,WNW,290,10.4,10.4,64,0.00,BKN,,0.00,WeatherDisplay:10.37,2013-03-29 03:33:00,
2013-03-28 23:38:00,43.0,31.6,30.10,WNW,290,10.4,10.4,64,0.00,BKN,,0.00,WeatherDisplay:10.37,2013-03-29 03:38:00,
2013-03-28 23:43:00,43.0,31.6,30.10,WNW,290,10.4,10.4,64,0.00,BKN,,0.00,WeatherDisplay:10.37,2013-03-29 03:43:00,
2013-03-28 23:48:00,43.0,31.6,30.10,WNW,290,10.4,10.4,64,0.00,BKN,,0.00,WeatherDisplay:10.37,2013-03-29 03:48:00,
2013-03-28 23:53:00,43.0,31.6,30.10,WNW,290,10.4,10.4,64,0.00,BKN,,0.00,WeatherDisplay:10.37,2013-03-29 03:53:00,
2013-03-28 23:58:00,43.0,31.6,30.10,WNW,290,10.4,10.4,64,0.00,BKN,,0.00,WeatherDisplay:10.37,2013-03-29 03:58:00,